FW7740 Weather Reports


Display with metric or nautical units.
time (UTC)temp
F
wind
direction
speed
MPH
gust
MPH
rain 1hr
in
rain 24hr
in
rain mn
in
humidity
%
barometer
mb
20260904222002 96 316 0.0 0.0 0.00 0.00 0.00 40 1013.8
20260904221456 96 303 0.0 1.0 0.00 0.00 0.00 40 1014.2
20260904220951 97 303 0.0 0.0 0.00 0.00 0.00 39 1014.2
20260904220451 97 303 1.0 1.0 0.00 0.00 0.00 39 1013.8
20260904215946 98 301 1.0 1.0 0.00 0.00 0.00 37 1014.2
20260904215441 99 297 1.0 1.0 0.00 0.00 0.00 36 1014.2
20260904214937 99 308 0.0 0.0 0.00 0.00 0.00 36 1014.2
20260904214432 99 105 5.0 8.0 0.00 0.00 0.00 35 1014.2
20260904213927 100 298 1.0 0.0 0.00 0.00 0.00 35 1014.6
20260904213421 100 319 2.0 2.0 0.00 0.00 0.00 34 1014.6
20260904212917 100 299 2.0 3.0 0.00 0.00 0.00 35 1014.6
20260904212417 101 136 6.0 9.0 0.00 0.00 0.00 34 1014.6
20260904211912 101 331 0.0 0.0 0.00 0.00 0.00 34 1014.2
20260904211407 101 295 1.0 1.0 0.00 0.00 0.00 34 1014.9
20260904210902 102 284 2.0 2.0 0.00 0.00 0.00 34 1014.6
20260904210401 101 325 0.0 0.0 0.00 0.00 0.00 34 1014.6
20260904205857 102 214 2.0 3.0 0.00 0.00 0.00 34 1014.9
20260904205353 102 288 1.0 1.0 0.00 0.00 0.00 34 1014.6
20260904204850 102 337 0.0 0.0 0.00 0.00 0.00 32 1014.9
20260904204346 101 320 0.0 0.0 0.00 0.00 0.00 34 1014.9
20260904203842 101 253 2.0 2.0 0.00 0.00 0.00 34 1015.3
20260904203338 100 347 2.0 2.0 0.00 0.00 0.00 34 1014.9
20260904202833 102 260 1.0 1.0 0.00 0.00 0.00 34 1015.3
20260904202329 102 232 3.0 3.0 0.00 0.00 0.00 32 1015.3
20260904201825 102 151 4.0 5.0 0.00 0.00 0.00 34 1015.3
20260904201325 100 340 1.0 1.0 0.00 0.00 0.00 34 1014.9
20260904200820 101 183 4.0 5.0 0.00 0.00 0.00 34 1015.3
20260904200318 101 275 0.0 1.0 0.00 0.00 0.00 34 1015.3
20260904195813 101 314 1.0 1.0 0.00 0.00 0.00 34 1015.3
20260904195312 100 299 1.0 1.0 0.00 0.00 0.00 34 1015.6
20260904194807 101 209 4.0 5.0 0.00 0.00 0.00 34 1015.6
20260904194306 101 128 2.0 3.0 0.00 0.00 0.00 32 1015.9
20260904193801 101 242 3.0 3.0 0.00 0.00 0.00 32 1015.9
20260904193257 101 260 1.0 1.0 0.00 0.00 0.00 31 1015.9
20260904192752 100 237 3.0 3.0 0.00 0.00 0.00 34 1016.3
20260904192247 100 253 2.0 2.0 0.00 0.00 0.00 35 1015.9
20260904191744 100 192 1.0 2.0 0.00 0.00 0.00 35 1015.9
20260904191240 99 176 4.0 5.0 0.00 0.00 0.00 36 1015.9
20260904190736 99 136 3.0 3.0 0.00 0.00 0.00 35 1015.9
20260904190232 100 238 1.0 2.0 0.00 0.00 0.00 35 1015.9
20260904185728 100 216 2.0 2.0 0.00 0.00 0.00 35 1016.3
20260904185227 101 283 1.0 2.0 0.00 0.00 0.00 34 1016.3
20260904184726 100 293 2.0 2.0 0.00 0.00 0.00 35 1016.3
20260904184223 99 279 1.0 1.0 0.00 0.00 0.00 37 1016.3
20260904183718 99 329 1.0 1.0 0.00 0.00 0.00 36 1016.3
20260904183213 99 24 2.0 3.0 0.00 0.00 0.00 35 1016.6
20260904182708 99 197 4.0 5.0 0.00 0.00 0.00 35 1016.6
20260904182209 99 162 5.0 6.0 0.00 0.00 0.00 35 1016.6
20260904181704 98 178 4.0 5.0 0.00 0.00 0.00 37 1016.6
20260904181203 98 132 4.0 3.0 0.00 0.00 0.00 38 1017.0
20260904180654 98 32 2.0 2.0 0.00 0.00 0.00 37 1017.0
20260904180149 98 151 5.0 8.0 0.00 0.00 0.00 37 1016.6
20260904175648 99 151 5.0 6.0 0.00 0.00 0.00 37 1017.0
20260904175147 99 129 3.0 3.0 0.00 0.00 0.00 38 1017.0
20260904174641 97 280 0.0 0.0 0.00 0.00 0.00 38 1017.0
20260904174137 98 240 2.0 2.0 0.00 0.00 0.00 38 1017.3
20260904173633 97 255 4.0 6.0 0.00 0.00 0.00 40 1017.3
20260904173123 97 232 2.0 3.0 0.00 0.00 0.00 39 1017.3
20260904172619 97 191 3.0 3.0 0.00 0.00 0.00 39 1017.6
20260904172118 97 170 3.0 5.0 0.00 0.00 0.00 39 1017.3
20260904171613 96 134 6.0 9.0 0.00 0.00 0.00 40 1017.3
20260904171109 95 53 7.0 8.0 0.00 0.00 0.00 41 1017.6
20260904170604 96 151 9.0 9.0 0.00 0.00 0.00 40 1017.6
20260904170100 96 318 0.0 0.0 0.00 0.00 0.00 43 1017.6
20260904165558 96 156 4.0 5.0 0.00 0.00 0.00 41 1018.1
20260904165053 95 226 2.0 2.0 0.00 0.00 0.00 42 1018.1
20260904164547 96 142 8.0 8.0 0.00 0.00 0.00 41 1017.6
20260904164043 97 197 5.0 7.0 0.00 0.00 0.00 42 1018.1
20260904163542 96 131 4.0 5.0 0.00 0.00 0.00 41 1017.6
20260904163033 96 356 1.0 1.0 0.00 0.00 0.00 43 1018.1
20260904162527 95 220 3.0 3.0 0.00 0.00 0.00 44 1017.6
20260904162022 96 158 6.0 7.0 0.00 0.00 0.00 44 1018.1
20260904161517 96 42 2.0 2.0 0.00 0.00 0.00 44 1018.1
20260904161013 95 37 2.0 2.0 0.00 0.00 0.00 44 1018.1
20260904160507 94 34 2.0 2.0 0.00 0.00 0.00 45 1017.6
20260904160003 95 171 5.0 6.0 0.00 0.00 0.00 45 1017.6
20260904155457 95 280 1.0 1.0 0.00 0.00 0.00 46 1018.1
20260904154956 95 139 6.0 8.0 0.00 0.00 0.00 45 1018.1
20260904154450 95 328 1.0 1.0 0.00 0.00 0.00 46 1017.6
20260904153945 94 326 1.0 1.0 0.00 0.00 0.00 47 1018.1
20260904153440 94 91 2.0 2.0 0.00 0.00 0.00 48 1018.1
20260904152937 94 175 6.0 7.0 0.00 0.00 0.00 47 1018.1
20260904152432 94 168 2.0 2.0 0.00 0.00 0.00 47 1018.1
20260904151931 93 310 1.0 1.0 0.00 0.00 0.00 49 1018.1
20260904151427 94 138 4.0 5.0 0.00 0.00 0.00 48 1018.1
20260904150921 92 265 1.0 1.0 0.00 0.00 0.00 50 1018.1
20260904150417 92 184 3.0 3.0 0.00 0.00 0.00 51 1017.6
20260904145914 93 201 3.0 5.0 0.00 0.00 0.00 50 1017.6
20260904145411 93 288 1.0 1.0 0.00 0.00 0.00 51 1017.6
20260904144906 92 334 1.0 1.0 0.00 0.00 0.00 52 1017.6
20260904144402 91 82 2.0 2.0 0.00 0.00 0.00 53 1017.3
20260904143857 90 261 1.0 1.0 0.00 0.00 0.00 54 1017.3
20260904143354 90 125 1.0 2.0 0.00 0.00 0.00 56 1017.6
20260904142850 89 169 3.0 2.0 0.00 0.00 0.00 57 1017.6
20260904142345 89 60 2.0 2.0 0.00 0.00 0.00 58 1017.6
20260904141839 89 350 0.0 1.0 0.00 0.00 0.00 57 1017.6
20260904141334 87 137 1.0 1.0 0.00 0.00 0.00 60 1017.3
20260904140831 87 217 0.0 0.0 0.00 0.00 0.00 61 1017.6
20260904140326 86 217 1.0 1.0 0.00 0.00 0.00 64 1017.6
20260904135824 86 359 1.0 1.0 0.00 0.00 0.00 64 1017.6
20260904135320 85 340 1.0 1.0 0.00 0.00 0.00 66 1017.6
20260904134816 84 288 0.0 0.0 0.00 0.00 0.00 68 1017.6
20260904134316 83 287 1.0 1.0 0.00 0.00 0.00 71 1017.6
20260904133815 82 288 0.0 0.0 0.00 0.00 0.00 72 1017.6
20260904133311 82 288 0.0 0.0 0.00 0.00 0.00 73 1017.6
20260904132806 81 290 0.0 0.0 0.00 0.00 0.00 73 1017.6
20260904132301 81 290 0.0 0.0 0.00 0.00 0.00 73 1017.6
20260904131800 80 290 0.0 0.0 0.00 0.00 0.00 75 1017.6
20260904131256 78 290 0.0 0.0 0.00 0.00 0.00 78 1017.6
20260904130756 78 290 1.0 1.0 0.00 0.00 0.00 79 1017.6
20260904130255 77 290 0.0 0.0 0.00 0.00 0.00 80 1017.6
20260904125751 77 290 0.0 0.0 0.00 0.00 0.00 80 1017.6
20260904125247 76 290 0.0 0.0 0.00 0.00 0.00 82 1017.6
20260904124741 75 291 0.0 0.0 0.00 0.00 0.00 83 1017.6
20260904124238 74 290 0.0 0.0 0.00 0.00 0.00 86 1017.6
20260904123738 72 290 0.0 0.0 0.00 0.00 0.00 89 1017.3
20260904123233 72 290 0.0 0.0 0.00 0.00 0.00 89 1017.6
20260904122727 72 290 0.0 0.0 0.00 0.00 0.00 89 1017.6
20260904122222 72 291 0.0 0.0 0.00 0.00 0.00 90 1017.3
20260904121718 72 291 0.0 0.0 0.00 0.00 0.00 90 1017.3
20260904121213 72 290 0.0 0.0 0.00 0.00 0.00 91 1017.3
20260904120710 71 290 0.0 0.0 0.00 0.00 0.00 91 1017.3
20260904120206 71 290 0.0 0.0 0.00 0.00 0.00 91 1017.3
20260904115701 71 290 0.0 0.0 0.00 0.00 0.00 91 1017.3
20260904115201 71 290 0.0 0.0 0.00 0.00 0.00 91 1017.3
20260904114700 71 290 0.0 0.0 0.00 0.00 0.00 91 1017.0
20260904114155 71 290 0.0 0.0 0.00 0.00 0.00 91 1016.6
20260904113650 71 290 0.0 0.0 0.00 0.00 0.00 90 1017.0
20260904113149 71 290 0.0 0.0 0.00 0.00 0.00 90 1017.0
20260904112645 71 291 0.0 0.0 0.00 0.00 0.00 91 1016.6
20260904112141 72 291 0.0 0.0 0.00 0.00 0.00 90 1017.0
20260904111636 72 291 0.0 0.0 0.00 0.00 0.00 90 1017.3
20260904111131 71 291 0.0 0.0 0.00 0.00 0.00 91 1016.6
20260904110626 71 290 0.0 0.0 0.00 0.00 0.00 91 1016.6
20260904110120 71 290 0.0 0.0 0.00 0.00 0.00 91 1017.0
20260904105620 72 290 0.0 0.0 0.00 0.00 0.00 90 1017.0
20260904105115 72 314 0.0 0.0 0.00 0.00 0.00 90 1016.6
20260904104611 72 314 0.0 0.0 0.00 0.00 0.00 90 1016.6
20260904104106 72 314 0.0 0.0 0.00 0.00 0.00 90 1016.3
20260904103601 72 314 0.0 0.0 0.00 0.00 0.00 90 1016.6
20260904103058 72 314 0.0 0.0 0.00 0.00 0.00 89 1016.6
20260904102553 72 314 0.0 0.0 0.00 0.00 0.00 89 1016.3
20260904102048 72 315 0.0 0.0 0.00 0.00 0.00 89 1016.6
20260904101546 72 315 0.0 0.0 0.00 0.00 0.00 89 1016.6
20260904101041 72 315 0.0 0.0 0.00 0.00 0.00 90 1016.3
20260904100536 72 315 0.0 0.0 0.00 0.00 0.00 90 1016.3
20260904100031 71 315 0.0 0.0 0.00 0.00 0.00 91 1016.3
20260904095525 71 315 0.0 0.0 0.00 0.00 0.00 91 1016.3
20260904095021 71 315 0.0 0.0 0.00 0.00 0.00 91 1015.9
20260904094515 71 315 0.0 0.0 0.00 0.00 0.00 91 1015.9
20260904094011 71 316 0.0 0.0 0.00 0.00 0.00 91 1015.9
20260904093508 71 302 0.0 0.0 0.00 0.00 0.00 90 1015.9
20260904092956 71 302 0.0 0.0 0.00 0.00 0.00 89 1015.9
20260904092453 71 302 0.0 0.0 0.00 0.00 0.00 89 1015.9
20260904091948 72 302 0.0 0.0 0.00 0.00 0.00 89 1015.9
20260904091444 72 302 0.0 0.0 0.00 0.00 0.00 88 1015.9
20260904090939 72 302 0.0 0.0 0.00 0.00 0.00 88 1015.9
20260904090434 72 302 0.0 0.0 0.00 0.00 0.00 88 1015.9
20260904085929 72 302 0.0 0.0 0.00 0.00 0.00 88 1015.9
20260904085425 72 302 0.0 0.0 0.00 0.00 0.00 89 1015.6
20260904084924 72 302 0.0 0.0 0.00 0.00 0.00 89 1015.9
20260904084421 72 302 0.0 0.0 0.00 0.00 0.00 89 1015.9
20260904083916 72 302 0.0 0.0 0.00 0.00 0.00 89 1015.6
20260904083413 72 302 0.0 0.0 0.00 0.00 0.00 89 1015.6
20260904082903 72 302 0.0 0.0 0.00 0.00 0.00 89 1015.6
20260904082403 72 302 0.0 0.0 0.00 0.00 0.00 88 1015.6
20260904081858 72 302 0.0 0.0 0.00 0.00 0.00 88 1015.6
20260904081353 72 302 0.0 0.0 0.00 0.00 0.00 88 1015.6
20260904080849 72 302 0.0 0.0 0.00 0.00 0.00 88 1015.6
20260904080344 72 302 0.0 0.0 0.00 0.00 0.00 88 1015.6
20260904075841 72 302 0.0 0.0 0.00 0.00 0.00 88 1015.6
20260904075336 72 302 0.0 0.0 0.00 0.00 0.00 88 1015.6
20260904074834 72 302 0.0 0.0 0.00 0.00 0.00 88 1015.6
20260904074329 72 302 0.0 0.0 0.00 0.00 0.00 87 1015.6
20260904073825 72 302 0.0 0.0 0.00 0.00 0.00 87 1015.6
20260904073321 72 302 0.0 0.0 0.00 0.00 0.00 87 1015.6
20260904072817 72 302 0.0 0.0 0.00 0.00 0.00 87 1015.6
20260904072316 72 302 0.0 0.0 0.00 0.00 0.00 87 1015.3
20260904071811 72 302 0.0 0.0 0.00 0.00 0.00 87 1015.6
20260904071307 72 302 0.0 0.0 0.00 0.00 0.00 87 1015.3
20260904070806 72 302 0.0 0.0 0.00 0.00 0.00 86 1015.3
20260904070305 73 302 0.0 0.0 0.00 0.00 0.00 86 1015.6
20260904065800 73 302 0.0 0.0 0.00 0.00 0.00 86 1015.6
20260904065257 73 302 0.0 0.0 0.00 0.00 0.00 85 1015.6
20260904064756 73 302 0.0 0.0 0.00 0.00 0.00 85 1015.6
20260904064252 73 302 0.0 0.0 0.00 0.00 0.00 85 1015.6
20260904063748 73 302 0.0 0.0 0.00 0.00 0.00 84 1015.6
20260904063244 73 302 0.0 0.0 0.00 0.00 0.00 84 1015.3
20260904062739 74 302 0.0 0.0 0.00 0.00 0.00 83 1015.6
20260904062235 74 302 0.0 0.0 0.00 0.00 0.00 83 1015.3
20260904061731 74 302 0.0 0.0 0.00 0.00 0.00 83 1015.6
20260904061227 74 302 0.0 0.0 0.00 0.00 0.00 83 1015.6
20260904060724 73 302 0.0 0.0 0.00 0.00 0.00 83 1015.6
20260904060219 74 302 0.0 0.0 0.00 0.00 0.00 83 1015.6
20260904055715 74 302 0.0 0.0 0.00 0.00 0.00 83 1015.3
20260904055214 74 302 0.0 0.0 0.00 0.00 0.00 83 1015.6
20260904054711 74 302 0.0 0.0 0.00 0.00 0.00 82 1015.6
20260904054207 74 302 0.0 0.0 0.00 0.00 0.00 81 1015.6
20260904053702 75 302 0.0 0.0 0.00 0.00 0.00 81 1015.6
20260904053201 75 302 0.0 0.0 0.00 0.00 0.00 81 1015.3
20260904052658 75 302 0.0 0.0 0.00 0.00 0.00 81 1015.3
20260904052154 75 302 0.0 0.0 0.00 0.00 0.00 81 1015.6
20260904051650 75 302 0.0 0.0 0.00 0.00 0.00 80 1015.3
20260904051144 75 302 0.0 0.0 0.00 0.00 0.00 81 1015.6
20260904050640 75 302 0.0 0.0 0.00 0.00 0.00 80 1015.3
20260904050136 75 302 0.0 0.0 0.00 0.00 0.00 80 1015.3
20260904045631 75 302 0.0 0.0 0.00 0.00 0.00 80 1015.3
20260904045130 76 302 0.0 0.0 0.00 0.00 0.00 79 1015.3
20260904044620 76 302 0.0 0.0 0.00 0.00 0.00 78 1015.3
20260904044117 76 302 0.0 0.0 0.00 0.00 0.00 78 1014.9
20260904043613 76 302 0.0 0.0 0.00 0.00 0.00 77 1015.6
20260904043108 76 302 0.0 0.0 0.00 0.00 0.00 77 1015.3
20260904042604 77 302 0.0 0.0 0.00 0.00 0.00 77 1015.3
20260904042059 77 302 0.0 0.0 0.00 0.00 0.00 77 1015.3
20260904041555 77 302 0.0 0.0 0.00 0.00 0.00 77 1015.3
20260904041051 77 302 0.0 0.0 0.00 0.00 0.00 76 1015.6
20260904040551 77 302 0.0 0.0 0.00 0.00 0.00 76 1015.6
20260904040048 77 302 0.0 0.0 0.00 0.00 0.00 76 1015.3
20260904035543 77 302 0.0 0.0 0.00 0.00 0.00 76 1015.3
20260904035042 77 302 0.0 0.0 0.00 0.00 0.00 76 1015.3
20260904034537 77 302 0.0 0.0 0.00 0.00 0.00 76 1015.3
20260904034032 77 302 0.0 0.0 0.00 0.00 0.00 76 1015.3
20260904033528 77 302 0.0 0.0 0.00 0.00 0.00 76 1015.6
20260904033026 77 302 0.0 0.0 0.00 0.00 0.00 76 1015.3
20260904032520 78 302 0.0 0.0 0.00 0.00 0.00 75 1015.3
20260904032020 78 302 0.0 0.0 0.00 0.00 0.00 75 1015.3
20260904031515 78 302 0.0 0.0 0.00 0.00 0.00 75 1015.3
20260904031011 78 302 0.0 0.0 0.00 0.00 0.00 74 1015.3
20260904030506 78 302 0.0 0.0 0.00 0.00 0.00 74 1015.3
20260904030001 78 302 0.0 0.0 0.00 0.00 0.00 74 1015.3
20260904025457 79 302 0.0 0.0 0.00 0.00 0.00 73 1015.3
20260904024957 79 302 0.0 0.0 0.00 0.00 0.00 73 1014.9
20260904024452 79 302 0.0 0.0 0.00 0.00 0.00 73 1014.9
20260904023948 79 302 0.0 0.0 0.00 0.00 0.00 72 1014.9
20260904023444 79 302 0.0 0.0 0.00 0.00 0.00 72 1015.3
20260904022944 79 302 0.0 0.0 0.00 0.00 0.00 72 1014.9
20260904022435 79 302 0.0 0.0 0.00 0.00 0.00 71 1014.6
20260904021931 79 302 0.0 0.0 0.00 0.00 0.00 71 1014.9
20260904021427 80 302 0.0 0.0 0.00 0.00 0.00 70 1014.6
20260904020926 80 302 0.0 0.0 0.00 0.00 0.00 69 1014.9
20260904020422 80 304 0.0 0.0 0.00 0.00 0.00 69 1014.6
20260904015920 81 304 0.0 0.0 0.00 0.00 0.00 68 1014.6
20260904015416 81 304 0.0 0.0 0.00 0.00 0.00 68 1014.6
20260904014914 81 304 0.0 0.0 0.00 0.00 0.00 67 1014.6
20260904014410 82 304 0.0 0.0 0.00 0.00 0.00 67 1014.6
20260904013905 82 304 0.0 0.0 0.00 0.00 0.00 66 1014.2
20260904013401 82 304 0.0 0.0 0.00 0.00 0.00 66 1014.2
20260904012857 83 304 0.0 0.0 0.00 0.00 0.00 65 1014.6
20260904012351 83 305 0.0 0.0 0.00 0.00 0.00 64 1014.2
20260904011851 84 305 0.0 0.0 0.00 0.00 0.00 63 1014.6
20260904011346 84 305 0.0 0.0 0.00 0.00 0.00 61 1014.2
20260904010841 85 304 0.0 0.0 0.00 0.00 0.00 59 1014.2
20260904010338 86 304 0.0 0.0 0.00 0.00 0.00 59 1014.2
20260904005833 86 305 0.0 0.0 0.00 0.00 0.00 57 1014.2
20260904005328 86 305 0.0 0.0 0.00 0.00 0.00 56 1013.8
20260904004823 87 304 0.0 0.0 0.00 0.00 0.00 55 1013.8
20260904004319 87 304 0.0 0.0 0.00 0.00 0.00 54 1013.8
20260904003815 88 304 0.0 0.0 0.00 0.00 0.00 53 1013.5
20260904003311 89 305 0.0 0.0 0.00 0.00 0.00 51 1013.8
20260904002806 89 306 0.0 0.0 0.00 0.00 0.00 50 1013.8
20260904002306 90 306 0.0 0.0 0.00 0.00 0.00 48 1013.8
20260904001801 91 306 0.0 0.0 0.00 0.00 0.00 47 1013.8
20260904001255 91 305 0.0 0.0 0.00 0.00 0.00 46 1013.8
20260904000751 92 307 0.0 0.0 0.00 0.00 0.00 45 1013.5
20260904000248 92 306 0.0 0.0 0.00 0.00 0.00 44 1013.5
20260903235744 93 301 0.0 0.0 0.00 0.00 0.00 43 1013.8
20260903235242 94 300 0.0 0.0 0.00 0.00 0.00 42 1013.5
20260903234740 94 299 0.0 0.0 0.00 0.00 0.00 41 1013.5
20260903234237 95 299 0.0 0.0 0.00 0.00 0.00 40 1013.5
20260903233733 96 298 0.0 0.0 0.00 0.00 0.00 39 1013.5
20260903233229 96 251 1.0 2.0 0.00 0.00 0.00 38 1013.5
20260903232727 95 152 5.0 7.0 0.00 0.00 0.00 38 1013.5
20260903232224 95 274 0.0 0.0 0.00 0.00 0.00 39 1013.5
20260903231722 95 42 2.0 2.0 0.00 0.00 0.00 38 1013.5
20260903231218 95 312 0.0 0.0 0.00 0.00 0.00 39 1013.5
20260903230713 96 291 2.0 2.0 0.00 0.00 0.00 37 1013.5
20260903230208 96 317 0.0 1.0 0.00 0.00 0.00 37 1013.1
20260903225704 96 302 0.0 0.0 0.00 0.00 0.00 37 1013.5
20260903225201 96 293 0.0 0.0 0.00 0.00 0.00 37 1013.5
20260903224656 97 313 0.0 0.0 0.00 0.00 0.00 37 1013.5
20260903224153 97 283 1.0 1.0 0.00 0.00 0.00 37 1013.1
20260903223647 97 278 1.0 1.0 0.00 0.00 0.00 35 1013.1
20260903223145 97 334 1.0 1.0 0.00 0.00 0.00 36 1013.1
20260903222640 98 295 0.0 0.0 0.00 0.00 0.00 35 1013.1
20260903222139 97 284 1.0 1.0 0.00 0.00 0.00 35 1013.1